FW0810 Weather Reports


Display with metric or nautical units.
time (UTC)temp
F
wind
direction
speed
MPH
gust
MPH
rain 1hr
in
rain 24hr
in
rain mn
in
humidity
%
barometer
mb
20260901153637 94 278 2.0 12.0 0.00 0.00 0.00 31 1019.9
20260901153137 94 341 2.0 12.0 0.00 0.00 0.00 31 1019.9
20260901152650 94 274 1.0 8.0 0.00 0.00 0.00 31 1019.9
20260901152137 94 335 1.0 5.0 0.00 0.00 0.00 32 1019.8
20260901151637 94 13 1.0 8.0 0.00 0.00 0.00 33 1019.8
20260901151137 94 281 1.0 8.0 0.00 0.00 0.00 33 1019.8
20260901150637 94 299 1.0 7.0 0.00 0.00 0.00 31 1019.8
20260901150138 94 274 1.0 9.0 0.00 0.00 0.00 32 1019.9
20260901145638 94 295 2.0 9.0 0.00 0.00 0.00 32 1019.8
20260901145137 94 0 2.0 9.0 0.00 0.00 0.00 33 1019.8
20260901144631 94 278 1.0 9.0 0.00 0.00 0.00 33 1019.8
20260901144132 94 263 1.0 9.0 0.00 0.00 0.00 33 1019.9
20260901143631 94 277 3.0 9.0 0.00 0.00 0.00 34 1019.8
20260901143130 94 293 2.0 9.0 0.00 0.00 0.00 34 1019.9
20260901142633 95 266 1.0 9.0 0.00 0.00 0.00 33 1020.0
20260901142145 94 231 2.0 10.0 0.00 0.00 0.00 33 1019.9
20260901141631 94 276 2.0 10.0 0.00 0.00 0.00 33 1020.0
20260901141131 94 316 1.0 9.0 0.00 0.00 0.00 33 1019.9
20260901140631 94 262 2.0 8.0 0.00 0.00 0.00 32 1020.0
20260901140132 94 276 2.0 9.0 0.00 0.00 0.00 32 1020.0
20260901135629 94 290 3.0 9.0 0.00 0.00 0.00 32 1019.9
20260901135127 94 302 3.0 10.0 0.00 0.00 0.00 33 1020.0
20260901134629 94 267 3.0 10.0 0.00 0.00 0.00 33 1019.9
20260901134127 95 248 2.0 11.0 0.00 0.00 0.00 33 1020.0
20260901133629 95 217 2.0 11.0 0.00 0.00 0.00 32 1020.0
20260901133127 95 283 2.0 9.0 0.00 0.00 0.00 33 1020.0
20260901132627 95 290 1.0 9.0 0.00 0.00 0.00 34 1020.0
20260901131630 95 255 0.0 3.0 0.00 0.00 0.00 36 1020.3
20260901131125 94 341 1.0 7.0 0.00 0.00 0.00 36 1020.3
20260901130625 94 267 1.0 7.0 0.00 0.00 0.00 35 1020.3
20260901130125 94 176 1.0 6.0 0.00 0.00 0.00 35 1020.4
20260901125124 93 274 3.0 11.0 0.00 0.00 0.00 37 1020.5
20260901124624 93 279 2.0 11.0 0.00 0.00 0.00 36 1020.5
20260901124125 93 283 0.0 4.0 0.00 0.00 0.00 39 1020.6
20260901123624 93 269 0.0 6.0 0.00 0.00 0.00 42 1020.6
20260901123124 93 84 1.0 7.0 0.00 0.00 0.00 41 1020.6
20260901122620 93 295 1.0 8.0 0.00 0.00 0.00 40 1020.6
20260901122121 93 230 1.0 8.0 0.00 0.00 0.00 40 1020.7
20260901121119 92 335 0.0 6.0 0.00 0.00 0.00 42 1020.8
20260901120619 92 308 0.0 5.0 0.00 0.00 0.00 44 1020.7
20260901120122 92 334 1.0 6.0 0.00 0.00 0.00 43 1020.8
20260901115615 92 243 1.0 6.0 0.00 0.00 0.00 44 1020.8
20260901115116 92 248 0.0 4.0 0.00 0.00 0.00 45 1020.7
20260901114614 92 284 0.0 4.0 0.00 0.00 0.00 44 1020.9
20260901114113 91 298 0.0 5.0 0.00 0.00 0.00 45 1020.9
20260901113113 91 285 0.0 5.0 0.00 0.00 0.00 46 1021.0
20260901112613 91 251 0.0 5.0 0.00 0.00 0.00 47 1021.0
20260901112115 91 280 0.0 5.0 0.00 0.00 0.00 47 1021.0
20260901111114 90 240 0.0 3.0 0.00 0.00 0.00 50 1021.1
20260901110612 90 218 0.0 3.0 0.00 0.00 0.00 50 1021.1
20260901110106 90 161 0.0 3.0 0.00 0.00 0.00 52 1021.2
20260901105558 90 268 0.0 5.0 0.00 0.00 0.00 52 1021.2
20260901105052 90 256 0.0 5.0 0.00 0.00 0.00 50 1021.2
20260901104546 89 295 0.0 5.0 0.00 0.00 0.00 48 1021.2
20260901103537 89 223 0.0 5.0 0.00 0.00 0.00 48 1021.3
20260901102535 88 349 0.0 4.0 0.00 0.00 0.00 48 1021.5
20260901102017 88 306 0.0 5.0 0.00 0.00 0.00 51 1021.5
20260901101510 88 266 0.0 5.0 0.00 0.00 0.00 52 1021.5
20260901101005 88 254 0.0 3.0 0.00 0.00 0.00 50 1021.6
20260901100500 87 322 0.0 3.0 0.00 0.00 0.00 52 1021.7
20260901095952 87 347 0.0 5.0 0.00 0.00 0.00 53 1021.6
20260901095446 87 309 1.0 5.0 0.00 0.00 0.00 54 1021.6
20260901094942 87 341 1.0 5.0 0.00 0.00 0.00 54 1021.6
20260901094437 87 342 0.0 5.0 0.00 0.00 0.00 58 1021.6
20260901093425 86 356 0.0 4.0 0.00 0.00 0.00 59 1021.6
20260901092924 86 328 0.0 3.0 0.00 0.00 0.00 60 1021.6
20260901091921 85 287 0.0 4.0 0.00 0.00 0.00 60 1021.6
20260901090918 85 12 1.0 5.0 0.00 0.00 0.00 61 1021.7
20260901090418 85 359 0.0 5.0 0.00 0.00 0.00 61 1021.7
20260901085920 86 144 0.0 0.0 0.00 0.00 0.00 63 1021.6
20260901085419 85 145 0.0 0.0 0.00 0.00 0.00 65 1021.6
20260901084916 84 145 1.0 3.0 0.00 0.00 0.00 66 1021.6
20260901083916 84 137 0.0 4.0 0.00 0.00 0.00 65 1021.6
20260901082914 84 146 0.0 1.0 0.00 0.00 0.00 65 1021.5
20260901082410 83 147 0.0 1.0 0.00 0.00 0.00 65 1021.6
20260901081408 83 144 0.0 4.0 0.00 0.00 0.00 66 1021.5
20260901080909 82 143 1.0 4.0 0.00 0.00 0.00 66 1021.4
20260901080409 82 153 0.0 4.0 0.00 0.00 0.00 66 1021.5
20260901075906 82 162 0.0 3.0 0.00 0.00 0.00 66 1021.4
20260901075401 82 214 0.0 1.0 0.00 0.00 0.00 68 1021.4
20260901074855 81 217 0.0 1.0 0.00 0.00 0.00 68 1021.4
20260901074407 80 217 0.0 1.0 0.00 0.00 0.00 69 1021.4
20260901073855 80 220 0.0 1.0 0.00 0.00 0.00 70 1021.5
20260901073354 80 220 0.0 1.0 0.00 0.00 0.00 71 1021.4
20260901072852 79 223 0.0 0.0 0.00 0.00 0.00 71 1021.4
20260901071848 78 224 0.0 0.0 0.00 0.00 0.00 73 1021.3
20260901071347 77 224 0.0 0.0 0.00 0.00 0.00 73 1021.3
20260901070845 76 229 0.0 0.0 0.00 0.00 0.00 75 1021.3
20260901065342 75 229 0.0 1.0 0.00 0.00 0.00 77 1021.2
20260901063836 72 277 0.0 0.0 0.00 0.00 0.00 82 1021.4
20260901062836 71 278 0.0 0.0 0.00 0.00 0.00 85 1021.4
20260901062334 70 278 0.0 0.0 0.00 0.00 0.00 85 1021.4
20260901061836 69 278 0.0 0.0 0.00 0.00 0.00 85 1021.4
20260901061333 69 278 0.0 0.0 0.00 0.00 0.00 86 1021.3
20260901060833 69 278 0.0 0.0 0.00 0.00 0.00 86 1021.4
20260901060332 68 278 0.0 0.0 0.00 0.00 0.00 87 1021.4
20260901055833 68 278 0.0 1.0 0.00 0.00 0.00 87 1021.3
20260901054328 67 279 0.0 0.0 0.00 0.00 0.00 88 1021.3
20260901053828 67 279 0.0 0.0 0.00 0.00 0.00 89 1021.3
20260901053331 66 269 0.0 2.0 0.00 0.00 0.00 89 1021.3
20260901052827 66 269 0.0 2.0 0.00 0.00 0.00 89 1021.2
20260901052330 65 266 0.0 1.0 0.00 0.00 0.00 89 1021.2
20260901051828 65 263 0.0 0.0 0.00 0.00 0.00 89 1021.2
20260901051330 65 263 0.0 1.0 0.00 0.00 0.00 89 1021.2
20260901050828 65 263 0.0 1.0 0.00 0.00 0.00 89 1021.2
20260901050328 64 276 0.0 0.0 0.00 0.00 0.00 89 1021.1
20260901045823 64 276 0.0 0.0 0.00 0.00 0.00 89 1021.1
20260901045324 64 278 0.0 3.0 0.00 0.00 0.00 89 1021.1
20260901044822 64 278 0.0 4.0 0.00 0.00 0.00 89 1021.1
20260901044321 64 274 0.0 4.0 0.00 0.00 0.00 89 1021.1
20260901043825 65 272 0.0 0.0 0.00 0.00 0.00 89 1021.0
20260901042822 65 272 0.0 0.0 0.00 0.00 0.00 88 1021.0
20260901041825 65 274 0.0 0.0 0.00 0.00 0.00 88 1021.2
20260901041320 65 274 0.0 0.0 0.00 0.00 0.00 88 1021.1
20260901040318 65 274 0.0 0.0 0.00 0.00 0.00 88 1021.1
20260901035818 65 274 0.0 0.0 0.00 0.00 0.00 88 1021.2
20260901035319 65 275 0.0 0.0 0.00 0.00 0.00 88 1021.1
20260901034319 65 274 0.0 0.0 0.00 0.00 0.00 88 1021.1
20260901033819 65 274 0.0 2.0 0.00 0.00 0.00 88 1021.1
20260901033320 65 275 0.0 2.0 0.00 0.00 0.00 88 1021.1
20260901032818 65 271 0.0 2.0 0.00 0.00 0.00 88 1021.1
20260901032318 65 270 0.0 4.0 0.00 0.00 0.00 88 1021.1
20260901031818 65 271 0.0 4.0 0.00 0.00 0.00 87 1021.1
20260901031319 65 270 0.0 0.0 0.00 0.00 0.00 87 1021.1
20260901030818 65 260 0.0 0.0 0.00 0.00 0.00 87 1021.0
20260901030331 65 259 0.0 0.0 0.00 0.00 0.00 87 1021.0
20260901025817 65 259 0.0 0.0 0.00 0.00 0.00 87 1021.0
20260901025317 65 259 0.0 0.0 0.00 0.00 0.00 87 1021.1
20260901024818 65 259 0.0 0.0 0.00 0.00 0.00 87 1021.1
20260901024311 65 265 0.0 3.0 0.00 0.00 0.00 86 1021.0
20260901023806 66 265 0.0 3.0 0.00 0.00 0.00 86 1021.1
20260901023259 66 275 0.0 3.0 0.00 0.00 0.00 85 1021.1
20260901022753 66 273 0.0 1.0 0.00 0.00 0.00 85 1021.0
20260901021742 66 270 0.0 0.0 0.00 0.00 0.00 85 1021.1
20260901021234 67 270 0.0 0.0 0.00 0.00 0.00 85 1021.0
20260901020729 67 270 0.0 0.0 0.00 0.00 0.00 85 1021.1
20260901020223 67 271 0.0 0.0 0.00 0.00 0.00 85 1021.0
20260901015721 67 271 0.0 0.0 0.00 0.00 0.00 85 1020.9
20260901015211 67 271 0.0 0.0 0.00 0.00 0.00 85 1020.9
20260901014705 67 271 0.0 2.0 0.00 0.00 0.00 84 1021.0
20260901014159 67 271 0.0 2.0 0.00 0.00 0.00 84 1020.9
20260901013655 67 274 0.0 0.0 0.00 0.00 0.00 83 1020.9
20260901013153 67 274 0.0 0.0 0.00 0.00 0.00 84 1020.8
20260901012652 67 274 0.0 0.0 0.00 0.00 0.00 84 1020.9
20260901012151 67 275 0.0 0.0 0.00 0.00 0.00 83 1020.9
20260901011652 68 275 0.0 2.0 0.00 0.00 0.00 83 1020.8
20260901011150 68 275 0.0 3.0 0.00 0.00 0.00 82 1020.9
20260901010648 68 276 0.0 3.0 0.00 0.00 0.00 82 1020.8
20260901010145 69 276 0.0 2.0 0.00 0.00 0.00 81 1020.8
20260901005646 69 267 0.0 0.0 0.00 0.00 0.00 81 1020.8
20260901005144 69 266 0.0 0.0 0.00 0.00 0.00 80 1020.8
20260901004643 69 263 0.0 0.0 0.00 0.00 0.00 80 1020.8
20260901004142 69 263 0.0 0.0 0.00 0.00 0.00 80 1020.8
20260901003644 69 263 0.0 4.0 0.00 0.00 0.00 80 1020.8
20260901003140 70 263 0.0 4.0 0.00 0.00 0.00 79 1020.8
20260901002639 70 274 0.0 1.0 0.00 0.00 0.00 79 1020.8
20260901002136 70 276 0.0 0.0 0.00 0.00 0.00 79 1020.8
20260901001633 70 276 0.0 0.0 0.00 0.00 0.00 79 1020.8
20260901000631 70 276 0.0 2.0 0.00 0.00 0.00 79 1020.7
20260901000130 70 276 0.0 2.0 0.00 0.00 0.00 79 1020.8
20260831235626 70 272 0.0 2.0 0.00 0.00 0.00 78 1020.8
20260831235121 70 271 0.0 0.0 0.00 0.00 0.00 78 1020.7
20260831234614 71 272 0.0 1.0 0.00 0.00 0.00 78 1020.9
20260831234108 71 273 0.0 3.0 0.00 0.00 0.00 78 1020.9
20260831233601 71 283 0.0 3.0 0.00 0.00 0.00 78 1020.7
20260831233058 71 278 0.0 0.0 0.00 0.00 0.00 78 1020.8
20260831232057 71 279 0.0 3.0 0.00 0.00 0.00 77 1020.8
20260831231555 71 273 0.0 0.0 0.00 0.00 0.00 77 1020.7
20260831231107 71 273 0.0 0.0 0.00 0.00 0.00 77 1020.8
20260831225548 71 273 0.0 0.0 0.00 0.00 0.00 76 1020.7
20260831224548 72 274 0.0 3.0 0.00 0.00 0.00 76 1020.8
20260831223547 72 274 0.0 3.0 0.00 0.00 0.00 74 1020.7
20260831223046 72 277 0.0 0.0 0.00 0.00 0.00 74 1020.6
20260831222044 73 280 0.0 2.0 0.00 0.00 0.00 73 1020.6
20260831221540 73 271 0.0 2.0 0.00 0.00 0.00 72 1020.6
20260831221046 73 273 0.0 1.0 0.00 0.00 0.00 72 1020.7
20260831220541 74 271 0.0 2.0 0.00 0.00 0.00 72 1020.5
20260831214525 75 266 0.0 3.0 0.00 0.00 0.00 69 1020.3
20260831214019 75 267 0.0 3.0 0.00 0.00 0.00 68 1020.3
20260831213007 76 277 0.0 2.0 0.00 0.00 0.00 68 1020.3
20260831212501 76 276 0.0 2.0 0.00 0.00 0.00 68 1020.2
20260831212007 76 269 0.0 2.0 0.00 0.00 0.00 68 1020.2
20260831211449 76 268 0.0 3.0 0.00 0.00 0.00 68 1020.0
20260831210441 76 274 0.0 1.0 0.00 0.00 0.00 67 1020.2
20260831205931 77 278 0.0 1.0 0.00 0.00 0.00 66 1020.2
20260831205426 77 270 0.0 3.0 0.00 0.00 0.00 66 1019.9
20260831204924 77 272 0.0 3.0 0.00 0.00 0.00 65 1019.9
20260831204425 77 276 0.0 1.0 0.00 0.00 0.00 65 1019.8
20260831203925 77 274 0.0 1.0 0.00 0.00 0.00 65 1019.8
20260831203422 77 285 0.0 3.0 0.00 0.00 0.00 65 1019.7
20260831202923 77 280 0.0 3.0 0.00 0.00 0.00 65 1019.6
20260831202421 78 259 0.0 2.0 0.00 0.00 0.00 64 1019.5
20260831201919 78 259 0.0 2.0 0.00 0.00 0.00 64 1019.5
20260831201422 78 268 0.0 1.0 0.00 0.00 0.00 63 1019.5
20260831200419 79 268 0.0 1.0 0.00 0.00 0.00 61 1019.5
20260831195921 80 297 0.0 0.0 0.00 0.00 0.00 61 1019.5
20260831195418 80 314 0.0 0.0 0.00 0.00 0.00 60 1019.4
20260831194916 80 314 0.0 0.0 0.00 0.00 0.00 60 1019.3
20260831194414 80 314 0.0 0.0 0.00 0.00 0.00 60 1019.3
20260831193912 80 316 0.0 0.0 0.00 0.00 0.00 60 1019.3
20260831192921 81 314 0.0 0.0 0.00 0.00 0.00 59 1019.3
20260831192408 81 314 0.0 0.0 0.00 0.00 0.00 59 1019.1
20260831191905 81 314 0.0 0.0 0.00 0.00 0.00 58 1019.1
20260831191406 81 314 0.0 0.0 0.00 0.00 0.00 58 1019.0
20260831190904 82 314 0.0 0.0 0.00 0.00 0.00 57 1019.0
20260831190402 82 314 0.0 0.0 0.00 0.00 0.00 56 1019.0
20260831185859 82 314 0.0 0.0 0.00 0.00 0.00 56 1018.9
20260831185357 82 314 0.0 0.0 0.00 0.00 0.00 55 1018.9
20260831184855 82 319 0.0 0.0 0.00 0.00 0.00 55 1018.8
20260831184353 83 319 0.0 0.0 0.00 0.00 0.00 55 1018.7
20260831183852 83 320 0.0 0.0 0.00 0.00 0.00 54 1018.7
20260831183351 83 320 0.0 0.0 0.00 0.00 0.00 55 1018.6
20260831182349 84 320 0.0 0.0 0.00 0.00 0.00 54 1018.5
20260831181341 85 320 0.0 0.0 0.00 0.00 0.00 53 1018.4
20260831180841 85 320 0.0 0.0 0.00 0.00 0.00 52 1018.3
20260831180341 85 320 0.0 0.0 0.00 0.00 0.00 51 1018.2
20260831175840 85 320 0.0 0.0 0.00 0.00 0.00 51 1018.3
20260831174841 87 320 0.0 0.0 0.00 0.00 0.00 50 1018.1
20260831174339 87 320 0.0 0.0 0.00 0.00 0.00 49 1018.0
20260831173839 87 320 0.0 0.0 0.00 0.00 0.00 48 1018.0
20260831173343 88 320 0.0 0.0 0.00 0.00 0.00 48 1018.0
20260831172836 88 323 0.0 1.0 0.00 0.00 0.00 47 1018.0
20260831172330 88 324 0.0 2.0 0.00 0.00 0.00 47 1017.9
20260831171325 89 354 0.0 4.0 0.00 0.00 0.00 46 1017.9
20260831170326 90 261 0.0 3.0 0.00 0.00 0.00 46 1018.1
20260831165826 91 284 0.0 4.0 0.00 0.00 0.00 46 1018.0
20260831165325 91 293 0.0 4.0 0.00 0.00 0.00 45 1017.9
20260831164325 91 272 0.0 4.0 0.00 0.00 0.00 45 1017.9
20260831163825 92 332 0.0 3.0 0.00 0.00 0.00 45 1018.0
20260831163327 92 283 0.0 4.0 0.00 0.00 0.00 45 1018.0
20260831162825 92 293 0.0 5.0 0.00 0.00 0.00 45 1018.0
20260831162325 92 275 0.0 5.0 0.00 0.00 0.00 44 1018.0
20260831161825 92 312 0.0 4.0 0.00 0.00 0.00 45 1017.9
20260831161325 92 352 0.0 4.0 0.00 0.00 0.00 45 1018.0
20260831160830 92 264 0.0 6.0 0.00 0.00 0.00 46 1018.0
20260831160327 92 281 0.0 6.0 0.00 0.00 0.00 45 1017.9
20260831155824 92 304 0.0 4.0 0.00 0.00 0.00 45 1017.9
20260831155320 93 348 0.0 4.0 0.00 0.00 0.00 45 1018.1
20260831154813 93 344 0.0 9.0 0.00 0.00 0.00 44 1018.1